Temperature
10 10 10 10 10 10 11 11 11 12 12 12 12 12 12 12 12 13 13 12 12 12 12 12 12 11 11 10 10 10 10 10 9 9 9 9 9 9 9 9 9 9 9
9 9 9 10 10 10 10 11 11 11 11 11 12 12 12 12 12 12 12 12 12 12 12 12 12 11 11 10 10 10 10 9 9 9 9 8 9 9 9 9 9 9 9
9 9 9 9 9 9 10 10 10 11 11 11 11 11 11 11 11 12 12 12 12 12 12 12 12 11 11 10 10 10 10 10 9 10 10 9 9 9 9 9 9 9 9
8 8 8 8 9 9 9 10 10 10 10 11 11 11 11 11 11 11 12 11 11 11 11 12 11 11 11 11 10 10 10 10 10 9 10 10 10 10 9 9 9 9 9
8 8 8 8 8 8 9 9 9 10 10 10 10 11 11 11 11 11 11 11 11 11 11 11 11 11 11 10 10 10 10 10 10 10 10 10 10 11 10 9 9 9 9
7 7 8 8 8 8 8 9 9 9 10 10 10 10 11 11 11 11 11 11 11 11 11 11 11 11 11 10 10 10 10 10 10 10 10 10 10 10 10 10 10 9 9
6 7 7 7 7 7 8 8 8 9 9 9 10 10 10 10 11 11 11 11 11 11 11 11 11 11 11 11 10 10 10 10 10 10 10 10 11 11 11 10 10 9 9
6 6 6 7 7 7 7 7 8 8 9 9 9 10 10 10 10 11 11 11 11 11 11 11 11 11 11 11 11 10 10 10 10 10 10 10 10 10 10 10 10 9 9
6 6 6 6 6 7 7 7 7 8 8 9 9 9 10 10 10 11 11 11 11 11 11 11 11 11 10 11 11 10 10 10 10 10 10 10 10 10 10 10 10 10 9
6 6 6 6 6 7 7 7 7 7 8 8 9 9 9 10 10 10 10 11 11 11 10 10 10 11 10 10 11 11 10 10 10 10 10 10 10 10 10 10 10 9 9
6 6 6 6 6 6 7 7 7 7 8 8 8 8 9 10 10 10 11 11 10 10 10 10 10 10 10 10 10 11 11 10 10 10 10 10 10 10 9 9 9 9 9
5 5 6 6 6 6 6 6 7 7 8 8 8 8 9 9 9 10 10 10 10 10 11 11 10 10 10 10 11 11 11 11 11 10 10 10 10 9 9 9 9 9 9
5 5 5 5 5 5 5 6 6 6 7 8 8 8 8 9 9 10 10 10 10 10 10 10 10 10 10 11 11 11 11 11 11 11 10 10 10 10 10 9 9 9 9
5 5 5 5 5 5 5 5 5 6 6 7 7 8 8 9 9 9 10 10 10 10 10 10 10 10 10 11 11 11 11 11 10 10 10 10 10 10 10 9 9 9 9
5 5 4 4 4 4 4 5 5 5 6 6 7 7 8 9 9 9 9 9 10 10 10 10 10 10 10 10 10 10 10 10 10 10 10 10 10 10 10 10 9 9 9
4 4 4 4 4 4 4 4 5 5 5 6 6 7 7 8 8 9 9 9 9 10 10 10 10 10 10 10 10 10 10 10 10 10 10 10 9 9 9 9 9 9 8
4 4 4 3 3 4 4 4 4 5 5 6 6 6 7 7 8 8 9 9 9 9 9 10 10 10 10 10 10 10 10 10 10 10 10 9 9 9 9 9 8 8 8
3 3 3 3 3 3 4 4 4 4 5 5 6 6 6 7 7 8 8 8 9 9 9 10 10 10 10 10 10 9 9 9 10 10 10 9 9 9 9 8 8 8 7
3 3 3 3 3 3 3 4 4 4 4 5 5 6 6 6 7 7 8 8 8 9 9 9 10 9 10 10 10 9 9 9 9 9 9 9 9 9 8 8 8 7 7
2 2 2 3 3 3 3 3 3 4 4 4 5 6 6 6 6 7 7 8 8 9 9 9 9 9 9 9 9 9 9 9 9 9 9 9 9 8 8 8 7 7 7
2 2 2 2 2 3 3 3 3 3 4 4 5 5 6 6 6 7 7 7 8 8 9 9 9 9 9 9 9 9 9 9 9 9 8 8 8 8 7 7 7 7 6
2 2 2 2 2 2 2 3 3 3 3 4 5 5 5 6 6 6 7 7 8 8 8 9 9 9 9 9 9 9 9 9 9 9 8 8 7 7 7 7 6 6 6
1 1 1 2 2 2 2 2 2 3 3 4 4 5 5 5 6 6 6 7 7 8 8 8 8 8 8 8 9 9 8 8 8 8 8 8 7 7 6 6 6 5 5
1 1 1 1 2 2 2 2 2 2 3 3 4 4 4 5 5 6 6 6 7 7 7 8 8 8 8 8 8 8 8 8 8 7 7 7 6 6 6 5 5 5 4
0 0 1 1 1 1 1 2 2 2 2 3 3 4 4 4 5 5 6 6 7 7 7 8 8 8 8 8 8 8 8 8 7 7 7 6 6 5 5 5 4 4 4
0 -0 0 0 1 1 1 1 1 2 2 2 3 3 4 4 4 5 5 6 6 7 7 8 8 8 8 8 8 8 8 7 7 7 7 6 6 5 5 5 4 4 3
Wind_Speed
11 9 8 9 8 8 9 9 10 10 9 8 8 8 9 9 8 9 13 14 15 16 14 12 13 12 11 10 10 8 9 7 7 6 4 2 2 3 3 4 4 5 8
9 10 9 8 8 8 9 9 9 9 10 8 8 7 8 8 8 9 12 14 15 15 15 15 14 13 11 12 11 9 7 6 7 6 6 3 1 2 3 3 4 4 5
8 10 8 7 6 7 7 7 8 8 9 9 7 7 6 7 7 9 11 12 14 16 15 16 15 14 13 12 12 11 9 9 7 7 5 4 4 3 2 4 4 4 4
8 9 8 6 7 6 6 6 6 8 8 8 8 11 9 9 9 9 9 11 13 15 15 16 16 15 12 13 13 11 9 10 9 7 4 3 4 4 3 2 4 5 5
8 8 8 6 7 6 5 5 6 6 8 9 9 10 10 9 8 10 11 11 12 13 15 15 15 15 13 13 13 12 11 9 9 7 4 2 2 3 4 3 3 3 4
9 9 8 7 6 6 3 4 5 6 7 9 10 11 12 11 12 13 13 12 11 11 14 14 14 14 13 14 13 13 13 10 9 7 5 4 4 4 3 3 4 3 3
9 10 10 8 7 6 4 3 4 5 6 9 9 11 12 13 14 15 14 13 12 11 14 14 13 13 13 14 12 12 13 12 11 9 6 5 4 4 3 4 3 3 2
9 10 10 8 7 7 5 4 4 5 5 8 9 10 11 10 10 13 13 14 12 12 15 14 13 13 14 14 13 11 11 11 11 10 8 5 5 4 4 4 4 3 1
10 10 11 9 8 7 6 5 5 5 5 7 8 9 11 11 11 12 13 12 12 13 16 15 14 13 15 15 15 11 12 11 11 10 9 7 5 4 4 4 5 5 3
10 10 9 9 9 7 6 5 5 5 5 6 7 8 10 10 11 12 14 13 14 15 17 16 15 14 15 15 14 12 12 12 11 9 10 8 5 5 4 4 4 4 4
11 10 9 9 9 8 7 6 4 5 4 4 6 7 8 9 10 12 13 14 14 16 18 17 16 15 15 15 14 14 14 14 12 10 11 10 8 6 5 5 4 4 4
10 10 9 9 9 8 8 8 6 5 4 5 6 6 6 8 9 11 12 13 14 16 17 17 17 16 16 15 16 16 15 15 14 13 12 10 9 8 7 6 5 4 4
10 9 8 9 9 9 8 9 8 7 5 5 5 5 6 7 8 9 11 12 14 14 16 17 17 16 16 16 15 15 15 14 13 13 13 11 11 9 7 7 6 5 4
10 9 8 8 9 9 8 8 9 8 6 4 4 4 5 7 8 8 9 12 13 14 15 16 16 16 15 15 14 14 14 13 12 12 12 12 12 11 10 8 7 6 5
10 9 8 8 9 9 9 8 9 9 7 5 4 4 5 5 6 7 8 9 11 13 13 14 15 15 14 14 14 13 14 13 12 11 11 10 12 12 10 8 8 8 6
10 10 9 9 9 10 9 9 9 9 8 6 4 4 4 4 5 6 8 9 10 11 12 13 14 14 12 15 17 14 13 13 13 12 11 10 12 12 12 11 11 10 8
10 11 9 9 9 9 9 8 9 9 7 6 4 4 3 4 5 6 7 8 9 10 11 13 13 14 14 18 18 17 13 13 13 12 11 9 9 12 10 10 11 8 8
10 10 9 9 9 8 8 8 8 8 7 6 4 3 3 4 4 5 7 8 8 10 10 12 13 12 13 19 19 18 12 11 12 12 12 12 11 11 12 10 8 6 5
9 9 8 9 9 9 8 8 8 7 7 6 4 3 3 4 4 5 6 7 7 8 9 11 12 13 13 19 20 17 10 10 11 10 11 12 11 16 17 13 11 9 6
9 9 9 9 9 9 8 7 7 7 7 7 5 4 3 4 4 5 5 5 7 8 9 10 11 12 12 17 20 18 10 10 10 9 10 13 14 18 18 13 12 11 8
10 9 9 9 9 9 8 8 7 7 7 7 6 4 4 4 4 4 4 5 6 7 8 10 9 11 12 17 21 19 12 11 11 10 9 9 17 19 18 14 10 12 11
10 9 8 9 8 8 7 8 8 7 7 6 5 4 4 5 4 3 3 5 7 8 8 9 9 8 10 13 17 19 15 14 11 11 9 10 18 18 17 12 14 17 14
10 8 8 9 9 8 6 7 8 7 7 6 5 4 4 5 4 4 4 4 6 7 7 8 9 8 8 10 16 18 17 16 10 9 14 17 19 17 12 15 18 14 9
10 9 9 9 9 8 7 7 7 6 6 6 5 4 4 4 3 3 4 5 6 7 8 9 9 9 8 9 10 11 12 14 12 11 15 18 17 13 12 13 11 7 7
9 8 8 9 9 8 8 7 6 6 6 6 5 4 4 3 2 2 3 4 5 7 9 9 10 11 11 12 15 14 12 11 12 12 9 9 9 8 7 7 7 6 7
8 8 9 9 9 8 8 7 6 6 6 6 5 4 3 2 2 1 1 0 4 6 8 10 11 9 12 17 19 18 19 20 21 14 11 10 10 10 9 9 7 6 6
Wind_Direction
289 295 286 272 257 247 241 225 222 213 197 189 187 190 188 182 183 179 170 169 170 168 161 159 159 160 162 162 158 153 151 147 139 124 114 92 134 160 166 158 154 165 170
306 304 296 277 260 250 243 222 223 218 201 189 187 187 185 182 184 179 172 170 171 168 166 162 163 163 163 164 163 156 149 153 149 144 136 134 198 248 191 172 172 177 167
303 304 298 284 270 255 241 234 226 221 207 191 185 184 182 177 184 180 174 175 175 171 167 166 163 166 166 169 167 164 156 160 163 166 158 154 182 186 212 195 181 182 182
312 315 315 297 282 271 244 230 228 221 206 192 191 190 193 192 187 179 174 175 176 172 167 169 166 169 169 169 169 167 162 160 169 186 202 169 144 146 162 214 203 195 193
321 323 317 311 298 291 253 232 225 228 209 196 197 195 196 196 182 173 173 178 175 173 171 170 169 171 171 171 169 168 166 168 171 175 174 168 124 138 143 178 202 208 208
333 330 327 328 320 309 280 242 232 233 221 203 203 200 194 192 184 176 177 178 175 175 174 172 172 173 172 172 172 170 171 173 173 172 166 162 159 179 163 165 178 192 212
342 338 337 331 325 316 302 276 251 240 232 212 210 204 196 193 190 181 181 179 176 176 178 175 175 176 173 172 170 170 174 174 175 176 177 178 182 173 160 149 164 162 179
345 339 334 328 322 317 301 290 262 252 245 231 220 211 199 196 195 188 186 184 179 176 177 178 177 178 175 174 172 173 174 175 177 179 176 180 186 173 163 156 151 149 176
341 336 335 337 332 317 301 287 276 262 251 246 234 221 205 199 196 192 188 183 178 175 175 179 178 179 178 176 175 178 176 177 179 179 180 180 179 169 164 151 150 154 177
340 333 334 337 333 322 303 286 280 270 261 253 241 236 211 199 198 195 187 184 179 175 174 178 179 180 180 178 178 177 177 177 179 178 179 180 174 168 162 156 155 153 163
339 333 335 336 334 334 336 318 294 287 281 270 252 248 218 202 200 194 187 186 181 178 178 178 179 181 182 180 180 181 178 179 179 178 180 182 172 169 168 161 162 165 155
337 332 335 339 339 338 338 333 320 300 283 272 260 252 228 206 201 193 188 187 184 182 179 177 180 183 184 182 183 182 180 180 181 180 178 180 174 170 170 168 172 174 165
332 332 338 340 341 341 338 333 326 314 297 284 267 256 234 214 204 193 192 191 186 183 182 180 182 185 185 184 184 182 181 180 179 178 179 177 173 176 172 170 174 174 162
327 331 336 338 337 336 334 331 326 321 308 292 269 256 242 222 210 197 194 195 187 184 185 184 183 184 184 183 181 180 178 177 177 178 178 177 178 178 174 175 175 165 157
328 332 332 333 332 332 331 330 325 323 319 296 275 266 251 231 211 200 193 192 189 183 184 183 182 181 182 183 178 177 176 174 172 171 171 170 169 172 173 172 170 164 160
326 328 327 329 328 326 326 328 323 322 318 303 286 286 265 233 210 202 192 188 187 182 180 182 181 180 182 177 174 172 174 172 170 169 166 164 163 164 161 157 156 160 165
325 324 323 322 320 319 321 321 318 316 313 305 302 290 287 246 214 202 190 189 185 181 182 182 179 180 177 170 171 170 169 170 170 168 165 163 163 155 151 143 136 137 145
320 318 318 317 312 311 316 315 314 314 310 300 298 297 294 269 226 203 193 192 185 182 186 182 179 177 174 167 167 165 164 165 167 167 165 162 159 160 151 143 134 124 120
312 313 312 311 312 311 312 316 316 314 310 300 296 296 294 276 239 212 201 191 184 183 185 181 177 175 172 168 166 163 164 162 162 162 161 162 162 158 148 145 142 131 113
311 312 311 311 311 310 312 313 312 313 311 306 298 296 292 278 253 219 207 196 184 184 181 177 176 173 172 169 166 164 166 161 157 153 157 160 161 159 154 156 154 152 149
305 307 306 303 302 306 309 308 306 306 304 300 296 292 291 285 261 229 207 194 184 180 180 172 171 171 171 170 169 167 169 165 159 158 159 163 158 157 157 155 158 156 146
304 305 302 298 298 300 301 301 299 300 302 297 295 289 287 287 267 221 204 194 183 177 178 169 166 167 169 170 172 169 164 158 159 162 159 155 152 152 152 151 147 141 135
303 300 297 296 296 297 294 293 294 299 300 299 298 288 283 278 258 224 202 193 185 177 178 171 167 162 160 163 161 162 155 147 148 151 148 145 145 144 144 143 142 140 139
301 301 300 298 295 296 290 287 292 296 295 292 293 288 281 280 264 240 210 197 189 182 179 174 167 161 160 160 160 159 151 139 133 133 136 134 133 131 132 136 138 137 143
299 299 298 295 293 294 292 293 296 298 295 289 285 284 277 275 282 273 230 211 208 194 184 180 170 168 172 168 158 158 157 153 145 137 133 135 138 138 135 134 134 133 134
301 301 298 297 296 295 292 292 293 291 286 284 281 272 261 264 253 250 279 198 196 186 182 174 166 167 160 152 151 149 148 146 145 141 149 151 152 153 151 148 144 142 142
Height
1402 1401 1400 1399 1399 1399 1400 1402 1404 1405 1407 1410 1413 1416 1419 1423 1428 1432 1436 1442 1447 1452 1458 1464 1470 1476 1481 1486 1492 1497 1502 1506 1510 1514 1518 1522 1524 1526 1527 1529 1530 1531 1532
1397 1396 1395 1394 1394 1394 1395 1396 1398 1400 1401 1404 1408 1412 1415 1418 1423 1427 1431 1437 1442 1447 1452 1458 1464 1471 1477 1482 1488 1493 1498 1503 1507 1510 1514 1519 1523 1524 1525 1526 1528 1529 1530
1396 1394 1391 1389 1389 1389 1389 1390 1392 1394 1397 1400 1403 1407 1411 1414 1418 1421 1426 1432 1438 1443 1448 1453 1459 1466 1472 1477 1483 1488 1493 1497 1503 1507 1510 1514 1516 1520 1522 1523 1525 1527 1528
1394 1391 1389 1386 1385 1384 1385 1386 1387 1389 1392 1395 1398 1401 1404 1407 1411 1416 1421 1427 1433 1438 1444 1449 1455 1461 1467 1473 1479 1484 1489 1493 1498 1503 1507 1510 1511 1515 1518 1521 1522 1524 1525
1392 1390 1387 1385 1383 1382 1381 1382 1383 1385 1387 1390 1393 1396 1400 1404 1408 1413 1417 1423 1429 1435 1440 1445 1451 1457 1463 1468 1474 1480 1485 1489 1494 1498 1502 1506 1509 1511 1512 1515 1518 1521 1522
1392 1389 1386 1383 1381 1379 1379 1379 1380 1381 1383 1386 1388 1391 1394 1399 1402 1407 1413 1418 1424 1431 1436 1441 1447 1452 1458 1464 1469 1475 1480 1485 1490 1494 1498 1502 1505 1507 1509 1511 1514 1517 1519
1391 1388 1384 1381 1379 1377 1376 1376 1377 1378 1380 1382 1384 1387 1390 1394 1397 1401 1407 1413 1419 1425 1431 1437 1442 1448 1454 1460 1465 1471 1476 1481 1486 1490 1495 1499 1502 1505 1507 1509 1511 1513 1516
1391 1387 1384 1381 1378 1376 1375 1374 1375 1375 1377 1378 1380 1383 1385 1389 1393 1397 1402 1408 1413 1420 1427 1432 1438 1444 1450 1456 1461 1467 1472 1477 1482 1487 1491 1495 1498 1502 1504 1506 1508 1510 1512
1391 1387 1383 1380 1377 1374 1373 1373 1372 1372 1374 1376 1377 1379 1381 1385 1388 1393 1398 1403 1409 1415 1422 1428 1434 1440 1445 1451 1457 1462 1468 1473 1478 1482 1487 1491 1494 1498 1501 1503 1505 1507 1508
1390 1386 1382 1378 1375 1373 1371 1371 1370 1370 1371 1372 1374 1376 1378 1380 1384 1388 1392 1398 1403 1410 1416 1423 1429 1435 1441 1446 1452 1457 1463 1469 1473 1478 1483 1487 1490 1494 1497 1499 1501 1503 1505
1391 1387 1382 1378 1375 1371 1369 1368 1367 1367 1367 1368 1370 1371 1373 1376 1380 1383 1388 1393 1398 1404 1410 1417 1423 1429 1436 1441 1447 1452 1458 1463 1469 1473 1478 1482 1486 1489 1492 1495 1497 1499 1501
1390 1387 1382 1378 1374 1371 1368 1367 1365 1365 1364 1365 1366 1367 1369 1372 1375 1379 1383 1389 1394 1399 1405 1412 1418 1424 1430 1436 1442 1447 1452 1458 1463 1468 1473 1477 1481 1485 1488 1491 1493 1495 1497
1389 1385 1381 1377 1374 1371 1368 1365 1364 1362 1361 1361 1362 1363 1364 1368 1371 1374 1379 1384 1389 1394 1400 1406 1413 1419 1425 1431 1436 1442 1447 1452 1458 1463 1468 1472 1476 1480 1483 1486 1489 1491 1493
1387 1383 1380 1376 1373 1371 1368 1365 1362 1360 1359 1358 1358 1359 1360 1363 1366 1370 1374 1380 1384 1390 1395 1401 1407 1413 1419 1425 1431 1437 1442 1448 1453 1458 1463 1467 1471 1475 1478 1482 1484 1487 1489
1385 1382 1379 1375 1372 1369 1366 1363 1360 1358 1356 1356 1356 1356 1357 1360 1363 1367 1371 1375 1380 1385 1391 1396 1403 1409 1414 1420 1425 1431 1437 1443 1448 1453 1458 1463 1467 1471 1474 1477 1479 1482 1484
1383 1380 1377 1374 1371 1368 1365 1362 1359 1357 1355 1354 1353 1354 1355 1356 1359 1363 1368 1372 1376 1380 1386 1392 1397 1403 1408 1414 1420 1427 1432 1438 1443 1448 1453 1458 1463 1467 1470 1473 1475 1478 1480
1381 1378 1375 1372 1369 1366 1363 1360 1358 1355 1353 1351 1351 1351 1352 1354 1356 1360 1363 1367 1371 1377 1382 1387 1392 1398 1404 1410 1416 1422 1428 1433 1438 1444 1449 1453 1458 1461 1465 1468 1471 1473 1475
1379 1376 1373 1369 1366 1364 1361 1358 1355 1353 1351 1350 1349 1349 1350 1351 1353 1355 1359 1363 1367 1372 1377 1382 1388 1394 1399 1406 1412 1418 1423 1429 1434 1439 1444 1449 1453 1457 1460 1464 1466 1469 1471
1377 1373 1370 1367 1364 1361 1358 1355 1353 1351 1349 1348 1347 1348 1348 1349 1350 1352 1355 1359 1364 1368 1373 1378 1384 1389 1395 1401 1407 1413 1418 1424 1429 1435 1440 1444 1448 1452 1456 1459 1462 1464 1467
1373 1370 1367 1364 1361 1358 1355 1353 1351 1349 1347 1345 1345 1345 1346 1346 1347 1349 1352 1356 1360 1364 1369 1374 1379 1385 1390 1397 1402 1408 1413 1419 1424 1430 1435 1440 1444 1447 1451 1454 1457 1460 1462
1369 1366 1363 1360 1358 1355 1353 1350 1348 1346 1344 1343 1342 1342 1343 1343 1344 1346 1349 1352 1356 1360 1365 1370 1376 1381 1387 1392 1398 1404 1409 1414 1419 1425 1430 1435 1439 1443 1447 1450 1453 1456 1459
1364 1362 1359 1356 1354 1352 1350 1347 1345 1343 1342 1340 1340 1340 1340 1340 1341 1344 1346 1349 1353 1357 1361 1366 1371 1377 1383 1389 1394 1399 1405 1410 1415 1420 1425 1430 1435 1439 1443 1446 1449 1453 1456
1360 1357 1354 1351 1349 1347 1346 1344 1342 1340 1339 1337 1337 1337 1337 1338 1339 1340 1343 1346 1350 1353 1357 1362 1367 1373 1379 1385 1390 1396 1401 1406 1411 1416 1421 1426 1431 1436 1439 1443 1446 1449 1452
1356 1353 1350 1347 1344 1343 1342 1341 1339 1337 1336 1334 1334 1333 1334 1334 1335 1337 1340 1343 1346 1350 1354 1358 1363 1368 1374 1380 1386 1391 1397 1403 1408 1413 1418 1423 1428 1432 1436 1439 1443 1446 1449
1352 1349 1346 1343 1341 1339 1337 1336 1335 1333 1332 1331 1331 1330 1331 1331 1331 1333 1336 1339 1342 1346 1350 1354 1359 1364 1369 1375 1381 1386 1392 1398 1404 1409 1414 1419 1424 1428 1432 1436 1439 1443 1445
1347 1345 1342 1339 1337 1335 1333 1332 1331 1330 1328 1327 1327 1327 1327 1328 1329 1330 1333 1335 1339 1343 1348 1352 1357 1361 1367 1372 1378 1384 1390 1395 1401 1406 1410 1414 1419 1423 1427 1432 1436 1439 1442